This is the latest recevied weather packets stored in our database for station/object KF7SOJ. If no packets are shown the sender has not sent any weather packets the latest 10 day(s).
| Time | Temp. | Humidity | Pressure | Rain* | Wind** | Luminosity | Snow |
|---|---|---|---|---|---|---|---|
| 1788572283 | 28.33° C | 18% | 925.7 hPa | 0 mm | - | 10 W/m² | - |
| 1788571980 | 28.89° C | 18% | 925.6 hPa | 0 mm | - | 15 W/m² | - |
| 1788571675 | 29.44° C | 18% | 925.7 hPa | 0 mm | - | 20 W/m² | - |
| 1788571370 | 30° C | 17% | 925.6 hPa | 0 mm | - | 23 W/m² | - |
| 1788571067 | 30° C | 17% | 925.5 hPa | 0 mm | - | 25 W/m² | - |
| 1788570763 | 31.11° C | 16% | 925.5 hPa | 0 mm | - | 28 W/m² | - |
| 1788570457 | 31.67° C | 15% | 925.6 hPa | 0 mm | - | 40 W/m² | - |
| 1788570152 | 32.22° C | 15% | 925.6 hPa | 0 mm | - | 47 W/m² | - |
| 1788569849 | 32.78° C | 14% | 925.4 hPa | 0 mm | - | 53 W/m² | - |
| 1788569545 | 33.33° C | 14% | 925.4 hPa | 0 mm | - | 58 W/m² | - |
| 1788569239 | 33.33° C | 14% | 925.6 hPa | 0 mm | - | 61 W/m² | - |
| 1788568934 | 33.89° C | 13% | 925.3 hPa | 0 mm | - | 64 W/m² | - |
| 1788568634 | 35° C | 12% | 925.5 hPa | 0 mm | - | 83 W/m² | - |
| 1788568330 | 34.44° C | 12% | 925.4 hPa | 0 mm | - | 97 W/m² | - |
| 1788568025 | 34.44° C | 12% | 925.4 hPa | 0 mm | - | 117 W/m² | - |
| 1788567725 | 35° C | 12% | 925.5 hPa | 0 mm | - | 127 W/m² | - |
| 1788567420 | 35.56° C | 11% | 925.4 hPa | 0 mm | - | 144 W/m² | - |
| 1788567119 | 35° C | 12% | 925.4 hPa | 0 mm | - | 160 W/m² | - |
| 1788566815 | 35° C | 11% | 925.4 hPa | 0 mm | - | 180 W/m² | - |
| 1788566511 | 35.56° C | 12% | 925.3 hPa | 0 mm | - | 199 W/m² | - |
| 1788566210 | 35.56° C | 11% | 925.4 hPa | 0 mm | - | 219 W/m² | - |
| 1788565910 | 35.56° C | 11% | 925.3 hPa | 0 mm | - | 237 W/m² | - |
| 1788565605 | 34.44° C | 12% | 925.3 hPa | 0 mm | - | 256 W/m² | - |
| 1788565301 | 34.44° C | 12% | 925.3 hPa | 0 mm | - | 275 W/m² | - |
| 1788564997 | 34.44° C | 12% | 925.4 hPa | 0 mm | - | 295 W/m² | - |
* Rain latest hour (hover to see other rain measurements)
** Current wind speed in m/s (hover to see current wind gust speed)